Weather History for Glendive, MT

Change the Weather History Date:

Wednesday, January 23, 2013

  Actual Average Record
Temperature  
Mean Temperature 8 °F -  
Max Temperature 12 °F 23 °F 55 °F (2005)
Min Temperature 3 °F 6 °F -14 °F (2003)
Degree Days  
Heating Degree Days 58    
Moisture  
Dew Point 2 °F    
Average Humidity 75    
Maximum Humidity 85    
Minimum Humidity 67    
Precipitation  
Precipitation 0.00 in - - ()
Sea Level Pressure  
Sea Level Pressure 30.24 in    
Wind  
Wind Speed 7 mph (ENE)    
Max Wind Speed 12 mph    
Max Gust Speed -    
Visibility 10 miles    
Events      
Averages and records for this station are not official NWS values.
T = Trace of Precipitation, MM = Missing Value Source: NWS Daily Summary

Daily Weather History Graph

Daily Weather History Graph

Search for Another Location

Airport:

Trip Planner

Search our weather history database for the weather conditions in past years. The results will help you decide how hot, cold, wet, or windy it might be!

Date:

Astronomy

Jan. 23, 2013 Rise Set
Actual Time 7:34 AM MST 4:48 PM MST
Civil Twilight 7:00 AM MST 5:22 PM MST
Nautical Twilight 6:23 AM MST 5:59 PM MST
Astronomical Twilight 5:47 AM MST 6:35 PM MST
Moon 1:57 PM MST (1/23) 4:51 AM MST (1/23)
Length of Visible Light 10h 21m
Length of Day
9h 14m
Waxing Gibbous, 89% of the Moon is Illuminated
Jan 23
Waxing Gibbous
Jan 26
Full
Feb 3
Last Quarter
Feb 10
New
Feb 17
First Quarter

Hourly Weather History & Observations

Time (MST) Temp. Windchill Dew Point Humidity Pressure Visibility Wind Dir Wind Speed Gust Speed Precip Events Conditions
12:15 AM 12.2 °F 2.9 °F 6.8 °F 79% 30.16 in 10.0 mi NNW 5.8 mph - N/A   Mostly Cloudy
12:35 AM 12.2 °F 6.1 °F 5.0 °F 73% 30.16 in 10.0 mi North 3.5 mph - N/A   Overcast
12:55 AM 12.2 °F 6.1 °F 6.8 °F 79% 30.17 in 10.0 mi North 3.5 mph - N/A   Scattered Clouds
1:15 AM 10.4 °F - 6.8 °F 85% 30.17 in 10.0 mi North - - N/A   Clear
1:35 AM 10.4 °F -0.4 °F 5.0 °F 79% 30.17 in 10.0 mi NNE 6.9 mph - N/A   Clear
1:55 AM 10.4 °F 2.2 °F 3.2 °F 73% 30.18 in 10.0 mi NNE 4.6 mph - N/A   Clear
2:15 AM 8.6 °F 0.1 °F 5.0 °F 85% 30.18 in 10.0 mi NNE 4.6 mph - N/A   Clear
2:35 AM 8.6 °F -5.5 °F 1.4 °F 73% 30.20 in 10.0 mi North 10.4 mph - N/A   Clear
2:55 AM 8.6 °F 0.1 °F 1.4 °F 73% 30.21 in 10.0 mi North 4.6 mph - N/A   Clear
3:55 AM 6.8 °F -3.5 °F 3.2 °F 85% 30.22 in 10.0 mi North 5.8 mph - N/A   Clear
4:35 AM 6.8 °F -2.0 °F 1.4 °F 79% 30.22 in 10.0 mi NNE 4.6 mph - N/A   Clear
4:55 AM 6.8 °F -3.5 °F 1.4 °F 79% 30.24 in 10.0 mi North 5.8 mph - N/A   Clear
5:15 AM 5.0 °F -5.6 °F -0.4 °F 78% 30.25 in 10.0 mi NNE 5.8 mph - N/A   Clear
5:35 AM 5.0 °F -5.6 °F 1.4 °F 85% 30.25 in 10.0 mi North 5.8 mph - N/A   Clear
5:55 AM 3.2 °F -6.2 °F -0.4 °F 85% 30.25 in 10.0 mi NNE 4.6 mph - N/A   Clear
6:15 AM 3.2 °F -7.8 °F -2.2 °F 78% 30.26 in 10.0 mi North 5.8 mph - N/A   Clear
6:35 AM 3.2 °F -6.2 °F -2.2 °F 78% 30.26 in 10.0 mi NNE 4.6 mph - N/A   Clear
6:55 AM 3.2 °F -7.8 °F -0.4 °F 85% 30.27 in 10.0 mi NNE 5.8 mph - N/A   Clear
7:15 AM 3.2 °F -6.2 °F -2.2 °F 78% 30.28 in 10.0 mi NNE 4.6 mph - N/A   Clear
7:35 AM 3.2 °F -6.2 °F -0.4 °F 85% 30.30 in 10.0 mi North 4.6 mph - N/A   Clear
7:55 AM 5.0 °F -2.1 °F 1.4 °F 85% 30.32 in 10.0 mi North 3.5 mph - N/A   Clear
8:35 AM 5.0 °F -5.6 °F -0.4 °F 78% 30.33 in 10.0 mi NNE 5.8 mph - N/A   Clear
8:55 AM 6.8 °F -4.8 °F 1.4 °F 79% 30.33 in 10.0 mi ENE 6.9 mph - N/A   Clear
9:15 AM 6.8 °F -5.9 °F 1.4 °F 79% 30.33 in 10.0 mi NE 8.1 mph - N/A   Clear
9:35 AM 6.8 °F -6.9 °F 1.4 °F 79% 30.34 in 10.0 mi ENE 9.2 mph - N/A   Clear
9:55 AM 6.8 °F -7.8 °F -0.4 °F 72% 30.34 in 10.0 mi ENE 10.4 mph - N/A   Clear
10:15 AM 6.8 °F -7.8 °F 1.4 °F 79% 30.34 in 10.0 mi ENE 10.4 mph - N/A   Clear
10:35 AM 6.8 °F -7.8 °F 1.4 °F 79% 30.35 in 10.0 mi ENE 10.4 mph - N/A   Clear
10:55 AM 6.8 °F -8.6 °F 1.4 °F 79% 30.34 in 10.0 mi NE 11.5 mph - N/A   Clear
11:15 AM 6.8 °F -8.6 °F -0.4 °F 72% 30.33 in 10.0 mi ENE 11.5 mph - N/A   Clear
11:55 AM 8.6 °F -4.7 °F -0.4 °F 67% 30.36 in 10.0 mi East 9.2 mph - N/A   Clear
12:35 PM 8.6 °F -4.7 °F -0.4 °F 67% 30.34 in 10.0 mi ENE 9.2 mph - N/A   Clear
12:55 PM 8.6 °F -4.7 °F 1.4 °F 73% 30.33 in 10.0 mi ENE 9.2 mph - N/A   Clear
1:15 PM 8.6 °F -5.5 °F 1.4 °F 73% 30.32 in 10.0 mi East 10.4 mph - N/A   Clear
1:35 PM 8.6 °F -5.5 °F 1.4 °F 73% 30.31 in 10.0 mi ENE 10.4 mph - N/A   Clear
1:55 PM 8.6 °F -6.3 °F -0.4 °F 67% 30.31 in 10.0 mi ENE 11.5 mph - N/A   Clear
2:15 PM 8.6 °F -6.3 °F -0.4 °F 67% 30.30 in 10.0 mi ENE 11.5 mph - N/A   Clear
2:56 PM 8.6 °F -5.5 °F -0.4 °F 67% 30.30 in 10.0 mi ENE 10.4 mph - N/A   Clear
3:15 PM 8.6 °F -5.5 °F -0.4 °F 67% 30.30 in 10.0 mi ENE 10.4 mph - N/A   Partly Cloudy
3:35 PM 8.6 °F -5.5 °F -0.4 °F 67% 30.29 in 10.0 mi East 10.4 mph - N/A   Partly Cloudy
3:55 PM 8.6 °F -4.7 °F -0.4 °F 67% 30.30 in 10.0 mi East 9.2 mph - N/A   Clear
4:15 PM 8.6 °F -5.5 °F 1.4 °F 73% 30.28 in 10.0 mi ENE 10.4 mph - N/A   Clear
4:35 PM 8.6 °F -4.7 °F 1.4 °F 73% 30.28 in 10.0 mi ENE 9.2 mph - N/A   Clear
4:55 PM 8.6 °F -3.7 °F 3.2 °F 79% 30.27 in 10.0 mi East 8.1 mph - N/A   Clear
5:15 PM 8.6 °F -2.6 °F 1.4 °F 73% 30.27 in 10.0 mi ENE 6.9 mph - N/A   Clear
5:35 PM 8.6 °F -3.7 °F 1.4 °F 73% 30.24 in 10.0 mi ENE 8.1 mph - N/A   Clear
5:55 PM 8.6 °F -3.7 °F 1.4 °F 73% 30.24 in 10.0 mi ENE 8.1 mph - N/A   Clear
6:15 PM 8.6 °F -3.7 °F 3.2 °F 79% 30.23 in 10.0 mi East 8.1 mph - N/A   Clear
6:35 PM 10.4 °F -3.3 °F 1.4 °F 67% 30.24 in 10.0 mi East 10.4 mph - N/A   Clear
6:55 PM 10.4 °F -4.1 °F 1.4 °F 67% 30.25 in 10.0 mi ESE 11.5 mph - N/A   Clear
7:15 PM 10.4 °F -4.1 °F 1.4 °F 67% 30.22 in 10.0 mi East 11.5 mph - N/A   Clear
7:35 PM 10.4 °F -2.4 °F 1.4 °F 67% 30.20 in 10.0 mi East 9.2 mph - N/A   Clear
7:55 PM 10.4 °F -3.3 °F 3.2 °F 73% 30.20 in 10.0 mi East 10.4 mph - N/A   Clear
8:15 PM 10.4 °F -2.4 °F 3.2 °F 73% 30.18 in 10.0 mi East 9.2 mph - N/A   Clear
8:35 PM 10.4 °F -3.3 °F 1.4 °F 67% 30.18 in 10.0 mi East 10.4 mph - N/A   Clear
8:55 PM 10.4 °F -1.5 °F 1.4 °F 67% 30.18 in 10.0 mi East 8.1 mph - N/A   Clear
9:15 PM 10.4 °F -2.4 °F 1.4 °F 67% 30.17 in 10.0 mi East 9.2 mph - N/A   Clear
9:35 PM 10.4 °F -2.4 °F 3.2 °F 73% 30.15 in 10.0 mi East 9.2 mph - N/A   Clear
9:55 PM 10.4 °F -3.3 °F 3.2 °F 73% 30.14 in 10.0 mi ESE 10.4 mph - N/A   Clear
10:15 PM 10.4 °F -4.1 °F 3.2 °F 73% 30.14 in 10.0 mi ESE 11.5 mph - N/A   Clear
10:35 PM 10.4 °F -2.4 °F 3.2 °F 73% 30.13 in 10.0 mi East 9.2 mph - N/A   Clear
10:55 PM 10.4 °F -3.3 °F 3.2 °F 73% 30.13 in 10.0 mi ESE 10.4 mph - N/A   Clear
11:15 PM 10.4 °F -3.3 °F 1.4 °F 67% 30.11 in 10.0 mi ESE 10.4 mph - N/A   Clear
11:35 PM 10.4 °F -4.1 °F 5.0 °F 79% 30.08 in 10.0 mi ESE 11.5 mph - N/A   Clear
11:55 PM 10.4 °F -2.4 °F 1.4 °F 67% 30.08 in 10.0 mi ESE 9.2 mph - N/A   Clear